Location: Sweet Grass
(48.9965°N, 111.9649°W)
Time: 00:18:44
(UTC+00:00)

Oscar 11 - Visible Passes

Search period start: 31 March 2023 00:00
Search period end: 10 April 2023 00:00
Orbit: 608 x 622 km, 97.7° (Epoch: 29 March)

Date Brightness Start Highest point End Pass type
(mag) Time Alt. Az. Time Alt. Az. Time Alt. Az.
31 Mar 10.0 10:41:02 10° ENE 10:43:02 13° E 10:45:03 10° ESE visible
31 Mar 7.0 12:15:19 10° N 12:19:36 74° WNW 12:23:52 10° SSW visible
01 Apr 9.7 10:55:54 10° NE 10:58:54 18° E 11:01:54 10° SE visible
01 Apr 7.3 12:31:05 10° N 12:35:15 51° WNW 12:39:23 10° SSW visible
02 Apr 9.2 11:11:07 10° NE 11:14:43 26° E 11:18:18 10° SSE visible
03 Apr 8.6 11:26:31 10° NNE 11:30:29 36° E 11:34:26 10° SSE visible
04 Apr 7.9 11:42:00 10° NNE 11:46:12 52° E 11:50:23 10° S visible
05 Apr 7.3 11:57:35 10° NNE 12:01:53 75° ESE 12:06:10 10° S visible
06 Apr 10.0 10:39:04 10° ENE 10:40:58 13° E 10:42:51 10° ESE visible
06 Apr 7.0 12:13:14 10° N 12:17:32 77° WNW 12:21:49 10° SSW visible
07 Apr 9.8 10:53:50 10° NE 10:56:46 18° E 10:59:43 10° SE visible
08 Apr 9.3 11:08:59 10° NE 11:12:33 25° E 11:16:05 10° SSE visible
09 Apr 8.7 11:24:20 10° NNE 11:28:17 35° E 11:32:13 10° SSE visible
